Regional Weather Roundup
Issued by NWS

Home | Current Version | Previous Version | Graphics & Text | Print | Product List | Glossary On
Versions: 1 2 3 4 5 6 7 8 9 10 11 12 13 14 15 16 17 18 19 20 21 22 23 24 25 26 27 28 29 30 31 32 33 34 35 36 37 38 39 40 41 42 43 44 45 46 47 48 49 50
000
ASUS43 KOAX 080102
RWRNE

WEATHER ROUNDUP FOR NEBRASKA
NATIONAL WEATHER SERVICE OMAHA NE
800 PM CDT TUE JUL 07 2015

NOTES: SATELLITE DATA IS BEING USED TO AUGMENT CLOUD COVER ABOVE
       12000 FEET.
       "FAIR" INDICATES FEW OR NO CLOUDS BELOW 12,000 FEET WITH NO
       SIGNIFICANT WEATHER AND/OR OBSTRUCTIONS TO VISIBILITY.

  * THESE STATIONS DO NOT REPORT WEATHER SUCH AS RAIN...SNOW OR FOG.

NEZ001>004-019>022-054>056-080200-
NEBRASKA PANHANDLE

CITY           SKY/WX    TMP DP  RH WIND       PRES   REMARKS
SCOTTSBLUFF    CLOUDY    69  51  52 SE17      30.06F
ALLIANCE       CLOUDY    67  50  54 S15       30.08F
CHADRON        CLOUDY    72  53  51 S12       30.03F
KIMBALL          N/A    N/A N/A N/A MISG        N/A
SIDNEY         CLOUDY    70  47  43 SE14G23   30.10F
$$

NEZ057>060-069>072-079>082-080200-
SOUTHWEST NEBRASKA

CITY           SKY/WX    TMP DP  RH WIND       PRES   REMARKS
NORTH PLATTE   CLOUDY    71  53  52 SE7       30.10F
IMPERIAL       CLOUDY    71  49  45 E13       30.10F
LEXINGTON      MOSUNNY   71  54  54 SE8       30.10F
MCCOOK         MOSUNNY   72  51  47 E9        30.10S
$$

NEZ005>010-023>029-035>040-094-080200-
NORTH CENTRAL NEBRASKA

CITY           SKY/WX    TMP DP  RH WIND       PRES   REMARKS
VALENTINE      CLOUDY    71  54  54 S9        30.08F
AINSWORTH      MOSUNNY   69  55  59 E7        30.09F
BROKEN BOW     MOSUNNY   71  53  52 E7        30.10F
ORD            MOSUNNY   71  49  45 E6        30.09S
$$

NEZ041-046>049-061>064-073>077-083>087-080200-
SOUTH CENTRAL NEBRASKA

CITY           SKY/WX    TMP DP  RH WIND       PRES   REMARKS
GRAND ISLAND   PTSUNNY   67  53  61 E7        30.11S
AURORA         MOSUNNY   66  53  63 E3        30.11R
HASTINGS       MOSUNNY   68  52  56 E9        30.10S
KEARNEY *      PTSUNNY   66  54  63 E6        30.11S
$$

NEZ011>018-030>034-042>045-080200-
NORTHEAST NEBRASKA

CITY           SKY/WX    TMP DP  RH WIND       PRES   REMARKS
NORFOLK        MOSUNNY   69  50  50 E8        30.11R
BLAIR          MOCLDY    68  50  53 NE6       30.09S
FREMONT        PTCLDY    70  49  46 NE5       30.10S
TEKAMAH        PTCLDY    70  52  52 NE5       30.09S
$$

NEZ050>053-065>068-078-088>093-080200-
SOUTHEAST NEBRASKA

CITY           SKY/WX    TMP DP  RH WIND       PRES   REMARKS
LINCOLN        PTCLDY    69  53  56 NE8       30.09S
OMAHA EPPLEY   MOCLDY    70  52  52 NE6       30.08S
FALLS CITY     CLOUDY    70  56  61 NE3       30.05S
PLATTSMOUTH    PTCLDY    67  51  56 NE5       30.08S
$$

NEZ044-045-051>053-067-080200-
OMAHA AREA

CITY           SKY/WX    TMP DP  RH WIND       PRES   REMARKS
OMAHA EPPLEY   MOCLDY    70  52  52 NE6       30.08S
BLAIR          MOCLDY    68  50  53 NE6       30.09S
FREMONT        PTCLDY    70  49  46 NE5       30.10S
MILLARD        PTCLDY    70  52  52 CALM      30.08S
OFFUTT AFB     PTCLDY    69  54  58 NE5       30.07S
PLATTSMOUTH    PTCLDY    67  51  56 NE5       30.08S
$$


USA.gov is the U.S. government's official web portal to all federal, state and local government web resources and services.